THORAD AGENA D DEB, 4682

Orbit data source: Space-Track

THORAD AGENA D DEB, 4682 is space debris in SSO originally from a launch on Wed, 08 Apr 1970 UTC launched from the Air Force Western Test Range (AFWTR). Debris objects in space refer to the collection of defunct objects orbiting the Earth. Examples of debris include non-operational satellites, rocket bodies, and fragments generated from explosions, collisions, or faulty payload assembly.

Loading next visibility...
Identifier
4682, 1970-025BF
Orbit
SSO
Country
Flag of USUS
Related business
Manufacturer
Unknown
Mission
Spacecraft
Bus & Motor
Unknown
Mass
Unknown
Launch date (UTC)
1970-04-08 (56 years ago)
Launch vehicle
Unknown
Launch site
Air Force Western Test Range (AFWTR)
Object type
Payload
Rocket body
Debris
Shape & HBR
Unknown shape, 0.2 m
Radar Cross Section
Medium (>0.1 m² and <1 m²)

Expand to show TLE details & history
Last TLE update: 19 hours ago

TLE from 19 hours ago
0 THORAD AGENA D DEB
1  4682U 70025BF  26062.85495576  .00000288  00000-0  72191-3 0  9990
2  4682  99.7432  81.3785 0143722  46.1220  76.7714 13.24469622694147
Epoch: 2026-03-03T20:31Z
TLE epoch observation values (Epoch: 2026-03-03T20:31:08.177Z)
Latitude
54.40949°
Longitude
165.77639°
Altitude
1,153.222 km
Speed
7.293 km/s
True Right ascension
18h 20m 45s
True Declination
54° 15' 18"
Sunlit
Object was in daylight at epoch
Visualization orbit readout
Latitude
Unknown
Longitude
Unknown
Altitude
Unknown
Speed
Unknown
Apparent Right ascension
Unknown
Apparent Declination
Unknown
Sunlit
N/A
Visualization observer readout
Local Sidereal Time
19:44:53
Azimuth
Unknown
Elevation
Unknown
Doppler factor
Unknown
Orbital elements
Apogee altitude
1,273.445 km
Perigee altitude
1,056.621 km
Semi-major axis
7,543.17 km
Eccentricity
0.01437
Inclination
99.7432°
RAAN
81.3785°
Arg. of periapsis
46.122°
True anomaly
78.38104°
Mean anomaly
76.7714°
Eccentric anomaly
77.57558°
Mean motion
3.31293 °/min
Orbital period
108.67 mins
BSTAR
0.00072191

Documentation

Showing up to 5 results
|